TimePDT,TemperatureF,Dew PointF,Humidity,Sea Level PressureIn,VisibilityMPH,Wind Direction,Wind SpeedMPH,Gust SpeedMPH,PrecipitationIn,Events,Conditions,WindDirDegrees,DateUTC
12:10 AM,42.8,39.2,87,30.00,10.0,North,9.2,-,N/A,,Mostly Cloudy,10,2013-04-08 07:10:00
12:40 AM,42.8,39.2,87,30.02,10.0,North,10.4,-,N/A,,Partly Cloudy,10,2013-04-08 07:40:00
12:53 AM,43.0,39.9,89,30.04,10.0,North,12.7,19.6,N/A,,Clear,10,2013-04-08 07:53:00
1:53 AM,42.1,39.0,89,30.05,10.0,NNE,6.9,-,N/A,,Clear,20,2013-04-08 08:53:00
2:53 AM,43.0,37.9,82,30.09,10.0,North,12.7,19.6,N/A,,Clear,10,2013-04-08 09:53:00
3:53 AM,42.1,37.0,82,30.11,10.0,NNE,8.1,-,N/A,,Clear,30,2013-04-08 10:53:00
4:53 AM,41.0,36.0,82,30.11,10.0,NNE,4.6,-,N/A,,Clear,30,2013-04-08 11:53:00
5:53 AM,37.9,36.0,93,30.14,10.0,Calm,Calm,-,N/A,,Partly Cloudy,0,2013-04-08 12:53:00
6:53 AM,37.9,36.0,93,30.16,10.0,ENE,3.5,-,N/A,,Clear,70,2013-04-08 13:53:00
7:53 AM,41.0,37.0,86,30.18,10.0,NE,4.6,-,N/A,,Clear,40,2013-04-08 14:53:00
8:53 AM,46.0,37.9,73,30.19,10.0,NNE,5.8,-,N/A,,Clear,30,2013-04-08 15:53:00
9:53 AM,50.0,39.9,68,30.19,10.0,NNW,10.4,-,N/A,,Clear,340,2013-04-08 16:53:00
10:53 AM,50.0,41.0,71,30.20,10.0,NNW,15.0,-,N/A,,Clear,340,2013-04-08 17:53:00
11:53 AM,52.0,39.9,63,30.20,10.0,NNW,15.0,-,N/A,,Clear,340,2013-04-08 18:53:00
12:53 PM,53.1,42.1,66,30.19,10.0,NNW,17.3,24.2,N/A,,Clear,340,2013-04-08 19:53:00
1:53 PM,53.1,43.0,69,30.19,10.0,NNW,23.0,28.8,N/A,,Clear,330,2013-04-08 20:53:00
2:53 PM,53.1,43.0,69,30.20,10.0,NNW,19.6,29.9,N/A,,Clear,340,2013-04-08 21:53:00
3:53 PM,54.0,41.0,62,30.20,10.0,North,20.7,26.5,N/A,,Partly Cloudy,350,2013-04-08 22:53:00
4:53 PM,53.1,42.1,66,30.21,10.0,NNW,18.4,27.6,N/A,,Mostly Cloudy,340,2013-04-08 23:53:00
5:53 PM,53.1,42.1,66,30.22,10.0,North,18.4,25.3,N/A,,Mostly Cloudy,350,2013-04-09 00:53:00
6:27 PM,51.8,41.0,67,30.20,10.0,North,19.6,26.5,N/A,,Scattered Clouds,10,2013-04-09 01:27:00
6:53 PM,48.9,41.0,74,30.23,10.0,North,16.1,24.2,N/A,,Scattered Clouds,360,2013-04-09 01:53:00
7:11 PM,48.2,42.8,82,30.21,10.0,North,10.4,18.4,N/A,,Mostly Cloudy,360,2013-04-09 02:11:00
7:53 PM,48.0,42.1,80,30.23,10.0,North,15.0,-,N/A,,Mostly Cloudy,10,2013-04-09 02:53:00
8:05 PM,48.2,42.8,82,30.21,10.0,North,11.5,118.5,N/A,,Scattered Clouds,10,2013-04-09 03:05:00
8:53 PM,46.9,42.1,83,30.24,10.0,North,8.1,-,N/A,,Mostly Cloudy,10,2013-04-09 03:53:00
9:06 PM,46.4,42.8,87,30.21,10.0,NNE,9.2,-,N/A,,Scattered Clouds,20,2013-04-09 04:06:00
9:53 PM,46.0,42.1,86,30.24,10.0,NNE,5.8,-,N/A,,Clear,20,2013-04-09 04:53:00
10:53 PM,43.0,41.0,93,30.24,10.0,Calm,Calm,-,N/A,,Partly Cloudy,0,2013-04-09 05:53:00
11:53 PM,41.0,39.9,96,30.24,10.0,East,3.5,-,N/A,,Clear,100,2013-04-09 06:53:00